SCP
0 0 0 0 0 0 0 0 0 0 0 0 0 0 0 0 0 0 0 0 0 0 0 0 0 0 -0 -0 0 0 0 0 0 0 0 0 0 0 0 0 0 0 0
0 0 0 0 0 0 0 0 0 0 0 0 0 0 0 0 0 0 0 0 0 0 0 0 0 0 0 -0 0 0 0 0 0 0 0 0 0 0 0 0 0 0 0
0 0 0 0 0 0 0 0 0 0 0 0 0 0 0 0 0 0 0 0 0 0 0 0 0 0 0 0 0 0 0 0 0 0 0 0 0 0 0 0 0 0 0
0 0 0 0 0 0 0 0 0 0 0 0 0 0 0 0 0 0 0 0 0 0 0 0 0 0 0 0 0 0 0 0 0 0 0 0 0 0 0 0 0 0 0
0 0 0 0 0 0 0 0 0 0 0 0 0 0 0 0 0 0 0 0 0 0 0 0 0 0 0 0 0 0 0 0 0 0 0 0 0 0 0 0 0 0 0
0 0 0 0 0 0 0 0 0 0 0 0 0 0 0 0 0 0 0 0 0 0 0 0 0 0 0 0 0 0 0 0 0 0 0 0 0 0 0 0 0 0 0
0 0 0 0 0 0 0 0 0 0 0 0 0 0 0 0 0 0 0 0 0 0 0 0 0 0 0 0 0 0 0 0 0 0 0 0 0 0 0 0 0 0 0
0 0 0 0 0 0 0 0 0 0 0 0 0 0 0 0 0 0 0 0 0 0 0 0 0 0 0 0 0 0 0 0 0 0 0 0 0 0 0 0 0 -0 0
0 0 0 0 0 0 0 0 0 0 0 0 0 0 0 0 0 0 0 0 0 0 0 0 0 0 0 0 0 0 0 0 0 0 0 0 0 0 0 0 0 0 0
0 0 0 0 0 0 0 0 0 0 0 0 0 0 0 0 0 0 0 0 0 0 0 0 0 0 0 0 0 0 0 0 0 0 0 0 0 0 0 0 0 0 0
0 0 0 0 0 0 0 0 0 0 0 0 0 0 0 0 0 0 0 0 0 0 0 0 0 0 0 0 0 0 0 0 0 0 0 0 0 0 0 0 0 0 0
0 0 0 0 0 0 0 0 0 0 0 0 0 0 0 0 0 0 0 0 0 0 0 0 0 0 0 0 0 0 0 0 0 0 0 0 0 0 0 0 0 0 0
0 0 0 0 0 0 0 0 0 0 0 0 0 0 0 0 0 0 0 0 0 0 0 0 0 0 0 0 0 0 0 0 0 0 0 0 0 0 0 0 0 0 0
0 0 0 0 0 0 0 0 0 0 0 0 0 0 0 0 0 0 0 0 0 0 0 0 0 0 0 0 0 0 0 0 0 0 0 0 0 0 0 0 0 0 0
0 0 0 0 0 0 0 0 0 0 0 0 0 0 0 0 0 0 0 0 0 0 0 0 0 0 0 0 0 0 0 0 0 0 0 0 0 0 0 0 0 0 0
0 0 0 0 0 0 0 0 0 0 0 0 0 0 0 0 0 0 0 0 0 0 0 0 0 0 0 0 0 0 0 0 0 0 0 0 0 0 0 0 0 0 0
0 0 0 0 0 0 0 0 0 0 0 0 0 0 0 0 0 0 0 0 0 0 0 0 0 0 0 0 0 0 0 0 0 0 0 0 0 0 0 0 0 0 0
0 0 0 0 0 0 0 0 0 0 0 0 0 0 0 0 0 0 0 0 0 0 0 0 0 0 0 0 0 0 0 0 0 0 0 0 0 0 0 0 0 0 0
0 0 0 0 0 0 0 0 0 0 0 0 0 0 0 0 0 0 0 0 0 0 0 0 0 0 0 0 0 0 0 0 0 0 0 0 0 0 0 0 0 0 0
0 0 0 0 0 0 0 0 0 0 0 0 0 0 0 0 0 0 0 0 0 0 0 0 0 0 0 0 0 0 0 0 0 0 0 0 0 0 0 0 0 0 0
0 0 0 0 0 0 0 0 0 0 0 0 0 0 0 0 0 0 0 0 0 0 0 0 0 0 0 0 0 0 0 0 0 0 0 0 0 0 0 0 0 0 0
0 0 0 0 0 0 0 0 0 0 0 0 0 0 0 0 0 0 0 0 0 0 0 0 0 0 0 0 0 0 0 0 0 0 0 0 0 0 0 0 0 0 0
0 0 0 0 0 0 0 0 0 0 0 0 0 0 0 0 0 0 0 0 0 0 0 0 0 0 0 0 0 0 0 0 0 0 0 0 0 0 0 0 0 0 0
0 0 0 0 0 0 0 0 0 0 0 0 0 0 0 0 0 0 0 0 0 0 0 0 0 0 0 0 0 0 0 0 0 0 0 0 0 0 0 0 0 0 0
0 0 0 0 0 0 0 0 0 0 0 0 0 0 0 0 0 0 0 0 0 0 0 0 0 0 0 0 0 0 0 0 0 0 0 0 0 0 0 0 0 0 0
0 0 0 0 0 0 0 0 0 0 0 0 0 0 0 0 0 0 0 0 0 0 0 0 0 0 0 0 0 0 0 0 0 0 0 0 0 0 0 0 0 0 0
Wind_Speed_500mb
20 22 23 20 13 8 6 7 16 19 20 20 18 15 16 17 21 23 25 27 28 30 31 30 31 30 30 32 33 34 33 27 34 35 35 10 13 19 24 32 35 32 28
18 25 24 18 14 10 6 11 15 16 17 18 19 20 22 22 24 25 28 31 32 33 34 34 34 32 31 30 32 32 33 29 28 30 27 19 13 24 19 28 39 30 30
22 22 20 17 14 8 6 6 9 12 16 19 21 23 25 27 28 31 31 34 37 37 37 37 37 35 34 32 31 31 30 29 23 21 15 12 10 43 17 23 32 37 31
18 20 19 17 10 4 6 8 11 15 20 23 25 27 29 33 34 37 37 38 37 38 38 38 37 36 35 34 33 32 30 28 24 21 13 16 21 14 24 26 21 33 31
16 18 17 14 13 11 8 8 13 17 21 25 27 30 32 35 37 38 38 36 35 35 35 35 36 36 36 34 34 34 32 30 27 24 25 22 19 19 20 27 28 26 27
18 18 20 19 15 9 5 9 13 19 24 28 31 33 34 36 37 37 37 36 35 34 34 34 35 35 34 34 34 35 34 33 32 30 29 24 18 20 21 25 29 31 20
20 23 23 19 12 6 5 10 16 23 28 31 33 34 34 35 36 38 40 40 38 35 34 34 33 34 34 34 34 35 36 34 35 34 34 32 30 29 29 29 33 30 31
25 26 24 18 12 6 2 12 20 26 29 32 33 34 35 35 35 36 37 38 39 37 35 33 33 33 34 35 35 37 37 37 37 37 37 38 37 37 36 34 31 37 29
30 30 27 21 15 8 7 15 22 25 28 32 34 35 35 34 34 33 33 34 35 36 35 34 34 34 34 35 35 36 36 38 39 39 39 40 40 39 39 40 38 30 28
33 35 30 24 17 10 10 17 20 24 28 32 33 33 32 31 30 30 30 31 32 33 33 32 32 31 31 33 35 36 37 38 38 40 39 39 40 40 40 41 40 38 34
34 36 34 29 21 13 12 14 18 22 26 29 31 31 30 28 28 28 29 30 31 32 32 33 33 33 32 32 33 33 34 37 37 37 39 39 38 40 39 40 40 41 37
38 38 35 31 23 15 12 12 16 21 26 29 31 30 29 28 28 30 32 32 32 33 33 33 33 33 32 31 32 32 32 33 34 34 37 39 39 41 40 41 42 42 39
33 33 34 31 22 15 10 12 17 23 30 32 32 31 29 29 30 32 34 34 34 34 34 34 34 33 33 32 32 33 32 31 31 32 33 36 39 42 41 42 44 44 44
31 31 29 26 22 15 9 11 19 26 31 33 33 33 32 32 33 34 34 34 33 33 32 32 32 33 33 33 33 33 33 34 33 33 34 35 37 40 42 44 45 45 46
31 31 29 24 22 15 11 15 22 28 32 34 34 33 34 33 33 32 31 31 30 31 32 33 34 33 34 34 35 35 34 34 35 35 34 35 36 38 41 46 46 46 46
29 33 35 31 25 19 17 20 27 32 35 36 36 35 34 33 31 32 32 34 36 38 38 38 39 37 35 35 35 36 37 37 36 38 38 37 37 37 38 41 45 47 49
18 27 34 32 27 22 22 26 30 34 38 40 37 36 36 35 36 37 38 40 42 44 43 41 39 38 36 36 36 37 39 41 42 42 44 45 43 42 42 42 42 47 52
17 14 21 24 25 27 29 34 35 37 39 40 37 39 40 42 44 46 47 46 46 45 43 43 43 43 42 39 41 41 43 43 44 44 45 46 47 45 44 47 50 49 49
30 22 25 29 32 35 35 36 37 41 44 43 42 43 45 46 48 49 48 48 47 46 47 48 49 50 50 47 45 45 47 49 50 51 52 50 51 49 45 47 50 54 56
39 36 38 41 39 37 40 41 40 44 47 42 43 47 49 49 48 48 48 49 50 53 53 54 54 54 55 51 49 48 50 52 53 53 54 56 52 49 50 50 50 52 53
40 38 36 38 36 37 36 42 42 43 39 42 44 44 44 48 51 56 58 61 62 63 64 66 65 64 63 61 54 54 54 55 56 57 57 54 53 53 52 51 52 54 52
33 31 34 33 31 35 39 39 40 38 40 43 47 49 52 56 59 61 63 65 67 69 70 69 69 67 65 65 62 58 58 56 58 58 55 55 53 54 57 58 57 50 47
40 39 38 37 32 31 34 39 41 42 47 50 54 54 55 57 59 63 66 67 68 66 66 67 71 75 70 67 65 65 60 58 60 59 57 59 59 59 58 56 59 54 45
41 35 34 34 34 32 35 39 45 46 50 52 54 55 56 58 59 60 63 67 67 65 61 60 75 77 75 72 66 63 62 60 57 55 55 58 61 63 64 62 61 60 50
45 43 40 39 41 44 49 51 57 57 57 59 62 64 64 64 66 68 69 70 72 71 73 76 75 75 78 75 68 64 63 58 54 49 53 61 66 67 69 63 60 60 61
58 58 55 55 61 65 70 70 70 69 66 65 66 61 64 68 68 70 79 79 80 77 74 74 75 76 74 72 68 67 62 59 58 52 58 64 70 67 69 63 59 57 52
Wind_Direction_500mb
186 189 180 181 188 194 212 292 320 328 336 346 353 352 346 343 341 340 338 336 333 330 329 328 328 330 331 328 328 331 334 341 335 343 346 336 339 351 344 354 353 356 353
151 159 166 172 176 191 240 309 323 331 343 350 351 348 346 343 339 337 335 332 330 327 324 323 320 321 321 320 322 326 330 338 343 343 348 340 339 341 355 353 2 5 12
151 157 162 169 177 202 290 335 1 6 4 358 351 345 339 336 334 330 327 324 321 320 320 318 315 315 312 312 315 319 325 328 334 336 346 332 315 332 329 341 355 8 24
155 162 165 171 177 171 102 62 28 8 358 351 348 343 338 333 332 328 328 327 324 319 314 312 312 311 309 307 307 309 313 317 319 319 290 297 298 317 313 328 339 346 355
160 166 171 165 150 124 86 33 7 359 356 352 347 339 333 329 329 329 330 330 329 325 318 312 314 312 308 305 303 301 302 304 304 299 302 302 293 278 299 306 322 334 332
168 171 161 146 138 118 59 23 13 4 357 349 342 336 331 329 329 328 329 330 330 329 322 316 312 310 307 304 302 301 300 297 295 294 294 290 288 290 300 302 309 314 321
169 166 158 154 150 131 72 32 6 353 350 346 342 338 334 332 331 330 330 330 331 331 325 320 314 310 309 305 302 300 300 298 293 290 287 284 283 283 288 295 300 300 307
177 174 174 175 174 167 357 350 348 346 345 344 342 340 337 334 332 332 332 332 331 331 328 325 321 316 313 309 304 300 299 298 295 290 286 283 281 281 282 284 294 304 303
184 186 188 192 198 220 310 337 338 339 341 342 342 339 336 335 335 336 336 336 335 335 333 331 327 322 317 312 308 304 300 295 294 292 288 284 282 280 281 281 281 283 293
194 197 200 206 215 242 301 323 331 340 342 343 341 339 339 339 340 340 343 344 343 342 341 340 337 333 328 321 315 309 305 299 296 292 289 285 285 284 283 281 279 274 269
206 209 211 215 224 249 290 315 333 339 342 341 339 337 336 336 338 341 343 346 347 347 346 347 348 346 342 336 329 321 312 303 299 294 290 286 285 284 285 284 282 277 269
215 216 215 221 231 254 286 315 334 342 341 337 334 332 329 328 330 331 333 336 340 344 348 351 352 351 350 346 338 332 324 314 306 299 291 288 285 284 284 285 283 280 274
224 219 217 222 231 254 281 320 336 339 334 332 328 323 318 318 320 322 323 326 328 330 332 333 335 339 342 344 344 340 336 328 319 309 299 292 285 283 285 286 283 282 280
231 223 218 221 231 245 273 316 327 328 325 323 320 317 314 313 315 318 320 321 322 325 328 329 330 331 332 333 333 334 336 336 333 326 315 305 295 287 284 284 283 282 281
237 227 223 222 231 243 277 304 315 320 320 318 315 312 311 311 315 318 320 322 324 326 327 326 326 326 326 325 324 323 324 325 327 327 324 316 308 299 290 285 284 282 279
251 229 224 225 229 243 277 302 318 321 318 314 312 310 308 311 313 315 317 318 320 320 318 317 317 319 322 322 323 322 322 323 324 323 323 321 318 311 302 293 287 280 274
275 231 225 225 229 252 283 305 311 312 312 311 311 310 309 309 308 308 309 311 311 311 310 310 312 313 317 319 320 320 320 321 323 322 322 320 319 315 310 302 292 284 280
334 254 233 237 251 271 287 297 301 303 304 300 298 298 300 302 304 306 307 307 307 306 306 308 311 312 313 315 314 314 314 315 318 319 319 318 318 315 310 305 300 293 285
333 291 254 257 268 275 283 294 302 300 298 299 300 299 299 299 299 299 301 303 303 304 306 307 308 308 308 310 309 309 309 310 311 312 312 311 311 310 306 301 299 298 295
310 297 274 272 277 283 290 293 295 293 290 294 293 296 297 298 300 302 301 300 300 300 301 300 301 300 300 302 302 301 299 299 300 301 302 302 301 301 301 298 296 292 293
302 289 282 284 285 286 289 294 289 288 295 290 293 296 296 296 298 299 299 299 299 299 300 301 303 304 304 305 303 299 294 294 294 295 297 297 298 298 295 292 290 289 292
322 310 302 297 300 300 296 290 290 298 293 293 294 295 294 294 295 296 297 297 299 299 300 300 300 300 301 302 301 297 293 292 290 290 292 294 297 298 297 294 292 289 287
312 305 300 296 299 295 292 295 300 298 298 297 296 296 297 298 299 299 299 298 298 295 295 296 296 297 298 297 297 297 294 288 285 288 290 293 295 295 295 296 297 291 281
311 306 299 298 297 297 298 301 300 300 302 304 304 304 302 302 299 296 295 296 297 295 292 290 295 297 297 295 296 293 292 289 285 285 286 291 292 293 295 295 296 297 289
310 304 297 293 297 303 304 306 306 305 303 302 301 300 300 300 299 298 297 296 296 297 297 297 297 295 294 295 295 291 287 283 282 284 286 288 289 291 295 293 292 293 294
304 300 296 291 296 301 304 308 310 310 308 305 303 302 301 301 301 301 303 302 300 299 296 295 295 295 294 296 294 290 287 283 279 280 278 279 286 285 287 284 282 284 284
Wind_Speed_850mb
20 22 23 20 13 8 6 7 16 19 20 20 18 15 16 17 21 23 25 27 28 30 31 30 31 30 30 32 33 34 33 27 34 35 35 10 13 19 24 32 35 32 28
18 25 24 18 14 10 6 11 15 16 17 18 19 20 22 22 24 25 28 31 32 33 34 34 34 32 31 30 32 32 33 29 28 30 27 19 13 24 19 28 39 30 30
22 22 20 17 14 8 6 6 9 12 16 19 21 23 25 27 28 31 31 34 37 37 37 37 37 35 34 32 31 31 30 29 23 21 15 12 10 43 17 23 32 37 31
18 20 19 17 10 4 6 8 11 15 20 23 25 27 29 33 34 37 37 38 37 38 38 38 37 36 35 34 33 32 30 28 24 21 13 16 21 14 24 26 21 33 31
16 18 17 14 13 11 8 8 13 17 21 25 27 30 32 35 37 38 38 36 35 35 35 35 36 36 36 34 34 34 32 30 27 24 25 22 19 19 20 27 28 26 27
18 18 20 19 15 9 5 9 13 19 24 28 31 33 34 36 37 37 37 36 35 34 34 34 35 35 34 34 34 35 34 33 32 30 29 24 18 20 21 25 29 31 20
20 23 23 19 12 6 5 10 16 23 28 31 33 34 34 35 36 38 40 40 38 35 34 34 33 34 34 34 34 35 36 34 35 34 34 32 30 29 29 29 33 30 31
25 26 24 18 12 6 2 12 20 26 29 32 33 34 35 35 35 36 37 38 39 37 35 33 33 33 34 35 35 37 37 37 37 37 37 38 37 37 36 34 31 37 29
30 30 27 21 15 8 7 15 22 25 28 32 34 35 35 34 34 33 33 34 35 36 35 34 34 34 34 35 35 36 36 38 39 39 39 40 40 39 39 40 38 30 28
33 35 30 24 17 10 10 17 20 24 28 32 33 33 32 31 30 30 30 31 32 33 33 32 32 31 31 33 35 36 37 38 38 40 39 39 40 40 40 41 40 38 34
34 36 34 29 21 13 12 14 18 22 26 29 31 31 30 28 28 28 29 30 31 32 32 33 33 33 32 32 33 33 34 37 37 37 39 39 38 40 39 40 40 41 37
38 38 35 31 23 15 12 12 16 21 26 29 31 30 29 28 28 30 32 32 32 33 33 33 33 33 32 31 32 32 32 33 34 34 37 39 39 41 40 41 42 42 39
33 33 34 31 22 15 10 12 17 23 30 32 32 31 29 29 30 32 34 34 34 34 34 34 34 33 33 32 32 33 32 31 31 32 33 36 39 42 41 42 44 44 44
31 31 29 26 22 15 9 11 19 26 31 33 33 33 32 32 33 34 34 34 33 33 32 32 32 33 33 33 33 33 33 34 33 33 34 35 37 40 42 44 45 45 46
31 31 29 24 22 15 11 15 22 28 32 34 34 33 34 33 33 32 31 31 30 31 32 33 34 33 34 34 35 35 34 34 35 35 34 35 36 38 41 46 46 46 46
29 33 35 31 25 19 17 20 27 32 35 36 36 35 34 33 31 32 32 34 36 38 38 38 39 37 35 35 35 36 37 37 36 38 38 37 37 37 38 41 45 47 49
18 27 34 32 27 22 22 26 30 34 38 40 37 36 36 35 36 37 38 40 42 44 43 41 39 38 36 36 36 37 39 41 42 42 44 45 43 42 42 42 42 47 52
17 14 21 24 25 27 29 34 35 37 39 40 37 39 40 42 44 46 47 46 46 45 43 43 43 43 42 39 41 41 43 43 44 44 45 46 47 45 44 47 50 49 49
30 22 25 29 32 35 35 36 37 41 44 43 42 43 45 46 48 49 48 48 47 46 47 48 49 50 50 47 45 45 47 49 50 51 52 50 51 49 45 47 50 54 56
39 36 38 41 39 37 40 41 40 44 47 42 43 47 49 49 48 48 48 49 50 53 53 54 54 54 55 51 49 48 50 52 53 53 54 56 52 49 50 50 50 52 53
40 38 36 38 36 37 36 42 42 43 39 42 44 44 44 48 51 56 58 61 62 63 64 66 65 64 63 61 54 54 54 55 56 57 57 54 53 53 52 51 52 54 52
33 31 34 33 31 35 39 39 40 38 40 43 47 49 52 56 59 61 63 65 67 69 70 69 69 67 65 65 62 58 58 56 58 58 55 55 53 54 57 58 57 50 47
40 39 38 37 32 31 34 39 41 42 47 50 54 54 55 57 59 63 66 67 68 66 66 67 71 75 70 67 65 65 60 58 60 59 57 59 59 59 58 56 59 54 45
41 35 34 34 34 32 35 39 45 46 50 52 54 55 56 58 59 60 63 67 67 65 61 60 75 77 75 72 66 63 62 60 57 55 55 58 61 63 64 62 61 60 50
45 43 40 39 41 44 49 51 57 57 57 59 62 64 64 64 66 68 69 70 72 71 73 76 75 75 78 75 68 64 63 58 54 49 53 61 66 67 69 63 60 60 61
58 58 55 55 61 65 70 70 70 69 66 65 66 61 64 68 68 70 79 79 80 77 74 74 75 76 74 72 68 67 62 59 58 52 58 64 70 67 69 63 59 57 52
Wind_Direction_850mb
186 189 180 181 188 194 212 292 320 328 336 346 353 352 346 343 341 340 338 336 333 330 329 328 328 330 331 328 328 331 334 341 335 343 346 336 339 351 344 354 353 356 353
151 159 166 172 176 191 240 309 323 331 343 350 351 348 346 343 339 337 335 332 330 327 324 323 320 321 321 320 322 326 330 338 343 343 348 340 339 341 355 353 2 5 12
151 157 162 169 177 202 290 335 1 6 4 358 351 345 339 336 334 330 327 324 321 320 320 318 315 315 312 312 315 319 325 328 334 336 346 332 315 332 329 341 355 8 24
155 162 165 171 177 171 102 62 28 8 358 351 348 343 338 333 332 328 328 327 324 319 314 312 312 311 309 307 307 309 313 317 319 319 290 297 298 317 313 328 339 346 355
160 166 171 165 150 124 86 33 7 359 356 352 347 339 333 329 329 329 330 330 329 325 318 312 314 312 308 305 303 301 302 304 304 299 302 302 293 278 299 306 322 334 332
168 171 161 146 138 118 59 23 13 4 357 349 342 336 331 329 329 328 329 330 330 329 322 316 312 310 307 304 302 301 300 297 295 294 294 290 288 290 300 302 309 314 321
169 166 158 154 150 131 72 32 6 353 350 346 342 338 334 332 331 330 330 330 331 331 325 320 314 310 309 305 302 300 300 298 293 290 287 284 283 283 288 295 300 300 307
177 174 174 175 174 167 357 350 348 346 345 344 342 340 337 334 332 332 332 332 331 331 328 325 321 316 313 309 304 300 299 298 295 290 286 283 281 281 282 284 294 304 303
184 186 188 192 198 220 310 337 338 339 341 342 342 339 336 335 335 336 336 336 335 335 333 331 327 322 317 312 308 304 300 295 294 292 288 284 282 280 281 281 281 283 293
194 197 200 206 215 242 301 323 331 340 342 343 341 339 339 339 340 340 343 344 343 342 341 340 337 333 328 321 315 309 305 299 296 292 289 285 285 284 283 281 279 274 269
206 209 211 215 224 249 290 315 333 339 342 341 339 337 336 336 338 341 343 346 347 347 346 347 348 346 342 336 329 321 312 303 299 294 290 286 285 284 285 284 282 277 269
215 216 215 221 231 254 286 315 334 342 341 337 334 332 329 328 330 331 333 336 340 344 348 351 352 351 350 346 338 332 324 314 306 299 291 288 285 284 284 285 283 280 274
224 219 217 222 231 254 281 320 336 339 334 332 328 323 318 318 320 322 323 326 328 330 332 333 335 339 342 344 344 340 336 328 319 309 299 292 285 283 285 286 283 282 280
231 223 218 221 231 245 273 316 327 328 325 323 320 317 314 313 315 318 320 321 322 325 328 329 330 331 332 333 333 334 336 336 333 326 315 305 295 287 284 284 283 282 281
237 227 223 222 231 243 277 304 315 320 320 318 315 312 311 311 315 318 320 322 324 326 327 326 326 326 326 325 324 323 324 325 327 327 324 316 308 299 290 285 284 282 279
251 229 224 225 229 243 277 302 318 321 318 314 312 310 308 311 313 315 317 318 320 320 318 317 317 319 322 322 323 322 322 323 324 323 323 321 318 311 302 293 287 280 274
275 231 225 225 229 252 283 305 311 312 312 311 311 310 309 309 308 308 309 311 311 311 310 310 312 313 317 319 320 320 320 321 323 322 322 320 319 315 310 302 292 284 280
334 254 233 237 251 271 287 297 301 303 304 300 298 298 300 302 304 306 307 307 307 306 306 308 311 312 313 315 314 314 314 315 318 319 319 318 318 315 310 305 300 293 285
333 291 254 257 268 275 283 294 302 300 298 299 300 299 299 299 299 299 301 303 303 304 306 307 308 308 308 310 309 309 309 310 311 312 312 311 311 310 306 301 299 298 295
310 297 274 272 277 283 290 293 295 293 290 294 293 296 297 298 300 302 301 300 300 300 301 300 301 300 300 302 302 301 299 299 300 301 302 302 301 301 301 298 296 292 293
302 289 282 284 285 286 289 294 289 288 295 290 293 296 296 296 298 299 299 299 299 299 300 301 303 304 304 305 303 299 294 294 294 295 297 297 298 298 295 292 290 289 292
322 310 302 297 300 300 296 290 290 298 293 293 294 295 294 294 295 296 297 297 299 299 300 300 300 300 301 302 301 297 293 292 290 290 292 294 297 298 297 294 292 289 287
312 305 300 296 299 295 292 295 300 298 298 297 296 296 297 298 299 299 299 298 298 295 295 296 296 297 298 297 297 297 294 288 285 288 290 293 295 295 295 296 297 291 281
311 306 299 298 297 297 298 301 300 300 302 304 304 304 302 302 299 296 295 296 297 295 292 290 295 297 297 295 296 293 292 289 285 285 286 291 292 293 295 295 296 297 289
310 304 297 293 297 303 304 306 306 305 303 302 301 300 300 300 299 298 297 296 296 297 297 297 297 295 294 295 295 291 287 283 282 284 286 288 289 291 295 293 292 293 294
304 300 296 291 296 301 304 308 310 310 308 305 303 302 301 301 301 301 303 302 300 299 296 295 295 295 294 296 294 290 287 283 279 280 278 279 286 285 287 284 282 284 284